Location: Ellerstadt
(49.4644°N, 8.2615°E)
Time: 00:41:42
(UTC+00:00)

IRIDIUM 100 - Pass Details

Date: 28 September 2021
Orbit: 776 x 779 km, 86.4° (Epoch: 15 October)

Event Time Altitude Azimuth Distance (km) Brightness Sun altitude
Exits shadow 00:48:47 21° 10° (N) 1,687 ? -38.8°
Drops below altitude 10° 00:50:30 10° 7° (N) 2,341 ? -38.6°
Sets 00:52:52 0° 6° (N) 3,273 ? -38.4°
